Abbotsford, British Columbia

2:24 PM PDT on April 27, 2017 (GMT -0700)
Abbotsford

Weather History for CYXX - February, 2014

Change the Weather History Date:

Monday, February 24, 2014

  Actual Average Record
Temperature  
Mean Temperature 32 °F -  
Max Temperature 35 °F 51 °F 62 °F (2005)
Min Temperature 28 °F 35 °F 21 °F (2011)
Degree Days  
Heating Degree Days 34    
Moisture  
Dew Point 24 °F    
Average Humidity 73    
Maximum Humidity 93    
Minimum Humidity 45    
Precipitation  
Precipitation 0.16 in 0.19 in - ()
Sea Level Pressure  
Sea Level Pressure 30.15 in    
Wind  
Wind Speed 12 mph ()    
Max Wind Speed 18 mph    
Max Gust Speed 25 mph    
Visibility 6.8 miles    
Events Rain , Snow    
Averages and records for this station are not official NWS values.
T = Trace of Precipitation, MM = Missing Value Source: Averaged Metar Reports

Daily Weather History Graph

Daily Weather History Graph

Search for Another Location

Airport or City:

Trip Planner

Search our weather history database for the weather conditions in past years. The results will help you decide how hot, cold, wet, or windy it might be!

Date:

Astronomy

Feb. 24, 2014 Rise Set
Actual Time 7:01 AM PST 5:44 PM PST
Civil Twilight 6:29 AM PST 6:17 PM PST
Nautical Twilight 5:52 AM PST 6:53 PM PST
Astronomical Twilight 5:15 AM PST 7:30 PM PST
Moon 3:21 AM PST (2/24) 12:35 PM PST (2/24)
Length of Visible Light 11h 47m
Length of Day
10h 43m
Waning Crescent, 27% of the Moon is Illuminated
Feb 24
Waning Crescent
Mar 1
New
Mar 8
First Quarter
Mar 16
Full
Mar 23
Last Quarter

Hourly Weather History & Observations

Time (PST) Temp. Windchill Dew Point Humidity Pressure Visibility Wind Dir Wind Speed Gust Speed Precip Events Conditions
12:00 AM 30.2 °F 18.9 °F 19.4 °F 64% 30.13 in 15.0 mi ENE 16.1 mph 21.9 mph N/A   Overcast
1:00 AM 32.0 °F 20.8 °F 19.4 °F 60% 30.14 in 15.0 mi ENE 17.3 mph 25.3 mph N/A   Overcast
2:00 AM 32.0 °F 21.6 °F 19.4 °F 60% 30.14 in 15.0 mi ENE 15.0 mph 25.3 mph N/A   Overcast
3:00 AM 32.0 °F 21.6 °F 17.6 °F 55% 30.12 in 15.0 mi ENE 15.0 mph - N/A   Overcast
4:00 AM 32 °F - 19 °F 45% 30.13 in 15 mi ENE 13.8 mph - -   Partly Cloudy
4:00 AM 32.0 °F 22.1 °F 19.4 °F 60% 30.13 in 15.0 mi ENE 13.8 mph 20.7 mph N/A   Overcast
5:00 AM 32.0 °F 23.0 °F 19.4 °F 60% 30.13 in 15.0 mi ENE 11.5 mph 20.7 mph N/A   Overcast
5:46 AM 32.0 °F 23.0 °F 19.4 °F 60% 30.13 in 10.0 mi ENE 11.5 mph - N/A Snow Light Snow
6:00 AM 32.0 °F 22.1 °F 17.6 °F 55% 30.14 in 10.0 mi ENE 13.8 mph - N/A Snow Light Snow
6:54 AM 30.2 °F 19.8 °F 21.2 °F 69% 30.14 in 2.5 mi ENE 13.8 mph - N/A Snow Light Snow
7:00 AM 30.2 °F 18.1 °F 21.2 °F 69% 30.14 in 2.2 mi ENE 18.4 mph 25.3 mph N/A Snow Light Snow
7:22 AM 30.2 °F 18.9 °F 23.0 °F 75% 30.14 in 1.5 mi NE 16.1 mph - N/A Snow Light Snow
8:00 AM 30.2 °F 20.2 °F 23.0 °F 75% 30.14 in 1.5 mi ENE 12.7 mph 19.6 mph N/A Snow Light Snow
9:00 AM 30.2 °F 20.2 °F 23.0 °F 75% 30.15 in 1.0 mi East 12.7 mph - N/A Snow Light Snow
9:15 AM 28.4 °F 18.0 °F 24.8 °F 86% 30.15 in 0.8 mi ENE 12.7 mph - N/A Snow Light Snow
10:00 AM 30 °F - 26 °F 78% 30.14 in 1 mi ENE 9.2 mph - - Snow Light Snow
10:00 AM 30.2 °F 22.6 °F 26.6 °F 86% 30.14 in 1.0 mi ENE 8.1 mph - N/A Snow Light Snow
10:37 AM 30.2 °F 20.2 °F 24.8 °F 80% 30.14 in 1.2 mi ENE 12.7 mph - N/A Snow Light Snow
11:00 AM 30.2 °F 20.2 °F 24.8 °F 80% 30.14 in 1.5 mi ENE 12.7 mph 18.4 mph N/A Snow Light Snow
12:00 PM 30.2 °F 20.2 °F 24.8 °F 80% 30.14 in 1.0 mi ENE 12.7 mph - N/A Snow Light Snow
12:38 PM 32.0 °F 22.5 °F 24.8 °F 75% 30.13 in 0.8 mi ENE 12.7 mph 19.6 mph N/A Snow Light Snow
1:00 PM 32.0 °F 23.0 °F 24.8 °F 75% 30.13 in 0.8 mi ENE 11.5 mph 17.3 mph N/A Snow Light Snow
2:00 PM 32.0 °F 23.0 °F 26.6 °F 80% 30.13 in 0.8 mi ENE 11.5 mph - N/A Snow Light Snow
2:32 PM 30.2 °F 20.8 °F 28.4 °F 93% 30.14 in 0.6 mi ENE 11.5 mph - N/A Snow Light Snow
3:00 PM 30.2 °F 20.8 °F 28.4 °F 93% 30.14 in 0.6 mi ENE 11.5 mph - N/A Snow Light Snow
4:00 PM 32 °F - 29 °F 83% 30.15 in 1 mi ENE 9.2 mph - - Snow Light Snow
4:00 PM 32.0 °F 22.5 °F 28.4 °F 87% 30.15 in 0.6 mi ENE 12.7 mph - N/A Snow Light Snow
5:00 PM 32.0 °F 23.6 °F 28.4 °F 87% 30.14 in 0.6 mi ENE 10.4 mph - N/A Snow Light Snow
6:00 PM 32.0 °F 23.6 °F 28.4 °F 87% 30.15 in 0.6 mi ENE 10.4 mph - N/A Snow Light Snow
6:37 PM 32.0 °F 23.6 °F 28.4 °F 87% 30.15 in 7.0 mi ENE 10.4 mph - N/A Rain , Snow Light Snow
7:00 PM 32.0 °F 23.0 °F 28.4 °F 87% 30.16 in 7.0 mi ENE 11.5 mph - N/A Rain , Snow Light Snow
8:00 PM 33.8 °F 25.8 °F 28.4 °F 81% 30.16 in 8.0 mi ENE 10.4 mph - N/A Rain Light Ice Pellets
8:14 PM 32.0 °F 22.1 °F 26.6 °F 80% 30.16 in 8.0 mi ENE 13.8 mph 19.6 mph N/A Snow Light Snow
9:00 PM 33.8 °F 23.9 °F 24.8 °F 70% 30.17 in 15.0 mi ENE 15.0 mph 24.2 mph N/A Snow Light Snow
10:00 PM 35 °F - 24 °F 51% 30.18 in 15 mi NE 15.0 mph - - Snow Light Snow
10:00 PM 35.6 °F 26.2 °F 23.0 °F 60% 30.18 in 15.0 mi NE 15.0 mph 24.2 mph N/A   Overcast
10:21 PM 35.6 °F 26.2 °F 23.0 °F 60% 30.17 in 15.0 mi NE 15.0 mph 24.2 mph N/A   Light Ice Pellets
10:49 PM 35.6 °F 26.6 °F 23.0 °F 60% 30.18 in 15.0 mi NE 13.8 mph 24.2 mph N/A   Overcast
11:00 PM 35.6 °F 27.5 °F 23.0 °F 60% 30.18 in 15.0 mi ENE 11.5 mph 19.6 mph N/A   Mostly Cloudy